• In Uzbekistan
  • List of Countries
  • For 7 days
  • Water Temperature
  • Satellite Maps
  • Weather Map
  • Weather Widgets
  • user-avatar
    Login

    Hourly Weather Melbourne

    Today, 29 May, Monday

    Time Temperature Precipitation Wind Pressure Humidity
    00:00 +7°C° 0 mm 3 mps 759 mmHg 87%
    01:00 +7°C° 0 mm 3 mps 759 mmHg 87%
    02:00 +7°C° 0 mm 3 mps 760 mmHg 87%
    03:00 +5°C° 0 mm 3 mps 760 mmHg 88%
    04:00 +5°C° 0 mm 3 mps 761 mmHg 88%
    05:00 +5°C° 0 mm 3 mps 761 mmHg 89%
    06:00 +5°C° 0 mm 3 mps 761 mmHg 90%
    07:00 +5°C° 0 mm 3 mps 762 mmHg 91%
    08:00 +7°C° 0 mm 3 mps 762 mmHg 86%
    09:00 +8°C° 0 mm 3 mps 763 mmHg 81%
    10:00 +10°C° 0 mm 3 mps 763 mmHg 76%
    11:00 +11°C° 0 mm 3 mps 763 mmHg 70%
    12:00 +12°C° 0 mm 3 mps 763 mmHg 64%
    13:00 +13°C° 0 mm 3 mps 763 mmHg 57%
    14:00 +13°C° 0 mm 3 mps 763 mmHg 58%
    15:00 +14°C° 0 mm 2 mps 763 mmHg 60%
    16:00 +14°C° 0 mm 2 mps 763 mmHg 61%
    17:00 +12°C° 0 mm 2 mps 763 mmHg 67%
    18:00 +10°C° 0 mm 3 mps 764 mmHg 73%
    19:00 +9°C° 0 mm 3 mps 764 mmHg 79%
    20:00 +9°C° 0 mm 3 mps 764 mmHg 78%
    21:00 +9°C° 0 mm 3 mps 764 mmHg 78%
    22:00 +9°C° 0 mm 3 mps 764 mmHg 78%
    23:00 +10°C° 0 mm 4 mps 764 mmHg 77%

    Tomorrow, 30 May, Tuesday

    Time Temperature Precipitation Wind Pressure Humidity
    00:00 +10°C° 0 mm 4 mps 764 mmHg 77%
    01:00 +10°C° 0 mm 4 mps 764 mmHg 77%
    02:00 +10°C° 0 mm 4 mps 763 mmHg 78%
    03:00 +10°C° 0 mm 4 mps 763 mmHg 79%
    04:00 +10°C° 0 mm 4 mps 763 mmHg 80%
    05:00 +10°C° 0.5 mm 4 mps 763 mmHg 84%
    06:00 +10°C° 0.5 mm 3 mps 763 mmHg 88%
    07:00 +10°C° 0.5 mm 3 mps 763 mmHg 92%
    08:00 +10°C° 0.7 mm 3 mps 764 mmHg 92%
    09:00 +10°C° 0.7 mm 3 mps 765 mmHg 91%
    10:00 +10°C° 0.7 mm 3 mps 765 mmHg 91%
    11:00 +10°C° 0.2 mm 4 mps 765 mmHg 86%
    12:00 +11°C° 0.2 mm 4 mps 765 mmHg 81%
    13:00 +11°C° 0.2 mm 4 mps 766 mmHg 75%
    14:00 +11°C° 0.2 mm 4 mps 766 mmHg 74%
    15:00 +10°C° 0.2 mm 4 mps 766 mmHg 72%
    16:00 +10°C° 0.2 mm 4 mps 767 mmHg 71%
    17:00 +8°C° 0.1 mm 4 mps 767 mmHg 74%
    18:00 +8°C° 0.1 mm 3 mps 768 mmHg 78%
    19:00 +7°C° 0.1 mm 3 mps 769 mmHg 82%
    20:00 +7°C° 0.2 mm 3 mps 769 mmHg 82%
    21:00 +5°C° 0.2 mm 3 mps 769 mmHg 83%
    22:00 +5°C° 0.2 mm 3 mps 770 mmHg 84%
    23:00 +5°C° 0.1 mm 3 mps 770 mmHg 85%

    Day after tomorrow, 31 May, Wednesday

    Time Temperature Precipitation Wind Pressure Humidity
    00:00 +6°C° 0.1 mm 2 mps 770 mmHg 86%
    01:00 +6°C° 0.1 mm 2 mps 770 mmHg 87%
    02:00 +6°C° 0.1 mm 2 mps 770 mmHg 87%
    03:00 +6°C° 0.1 mm 2 mps 770 mmHg 88%
    04:00 +6°C° 0.1 mm 2 mps 771 mmHg 89%
    05:00 +6°C° 0 mm 2 mps 771 mmHg 89%
    06:00 +6°C° 0 mm 2 mps 771 mmHg 89%
    07:00 +6°C° 0 mm 2 mps 772 mmHg 89%
    08:00 +7°C° 0 mm 2 mps 772 mmHg 85%
    09:00 +8°C° 0 mm 2 mps 773 mmHg 82%
    10:00 +9°C° 0 mm 2 mps 773 mmHg 78%
    11:00 +10°C° 0.1 mm 3 mps 773 mmHg 75%
    12:00 +11°C° 0.1 mm 3 mps 773 mmHg 71%
    13:00 +11°C° 0.1 mm 3 mps 772 mmHg 68%
    14:00 +11°C° 0 mm 3 mps 772 mmHg 69%
    15:00 +11°C° 0 mm 3 mps 772 mmHg 70%
    16:00 +11°C° 0 mm 3 mps 772 mmHg 71%
    17:00 +10°C° 0 mm 3 mps 773 mmHg 77%
    18:00 +9°C° 0 mm 2 mps 773 mmHg 82%
    19:00 +8°C° 0 mm 2 mps 774 mmHg 88%
    20:00 +8°C° 0 mm 2 mps 774 mmHg 88%
    21:00 +7°C° 0 mm 2 mps 775 mmHg 88%
    22:00 +7°C° 0 mm 2 mps 775 mmHg 89%
    23:00 +7°C° 0 mm 2 mps 775 mmHg 90%

    1 June, Thursday

    Time Temperature Precipitation Wind Pressure Humidity
    00:00 +6°C° 0 mm 2 mps 775 mmHg 91%
    01:00 +6°C° 0 mm 1 mps 775 mmHg 92%
    02:00 +7°C° 0 mm 1 mps 775 mmHg 91%
    03:00 +7°C° 0 mm 1 mps 775 mmHg 91%
    04:00 +7°C° 0 mm 2 mps 775 mmHg 91%
    05:00 +7°C° 0 mm 1 mps 775 mmHg 91%
    06:00 +7°C° 0 mm 1 mps 775 mmHg 92%
    07:00 +6°C° 0 mm 1 mps 775 mmHg 93%
    08:00 +8°C° 0 mm 1 mps 776 mmHg 88%
    09:00 +8°C° 0 mm 2 mps 776 mmHg 83%
    10:00 +10°C° 0 mm 2 mps 776 mmHg 79%
    11:00 +12°C° 0 mm 1 mps 776 mmHg 73%
    12:00 +13°C° 0 mm 1 mps 775 mmHg 67%
    13:00 +14°C° 0 mm 1 mps 775 mmHg 61%
    14:00 +13°C° 0 mm 1 mps 775 mmHg 62%
    15:00 +13°C° 0 mm 1 mps 774 mmHg 63%
    16:00 +13°C° 0 mm 1 mps 774 mmHg 64%
    17:00 +11°C° 0 mm 1 mps 774 mmHg 73%
    18:00 +9°C° 0 mm 1 mps 775 mmHg 82%
    19:00 +6°C° 0 mm 1 mps 775 mmHg 91%
    20:00 +6°C° 0 mm 1 mps 775 mmHg 92%
    21:00 +4°C° 0 mm 0 mps 775 mmHg 92%
    22:00 +3°C° 0 mm 0 mps 775 mmHg 93%
    23:00 +3°C° 0 mm 0 mps 775 mmHg 93%

    2 June, Friday

    Time Temperature Precipitation Wind Pressure Humidity
    00:00 +3°C° 0 mm 0 mps 775 mmHg 93%
    01:00 +3°C° 0 mm 0 mps 775 mmHg 93%
    02:00 +3°C° 0 mm 0 mps 775 mmHg 93%
    03:00 +4°C° 0 mm 1 mps 775 mmHg 93%
    04:00 +4°C° 0 mm 1 mps 774 mmHg 93%
    05:00 +4°C° 0 mm 1 mps 775 mmHg 93%
    06:00 +3°C° 0 mm 1 mps 775 mmHg 94%
    07:00 +3°C° 0 mm 1 mps 775 mmHg 95%
    08:00 +6°C° 0 mm 1 mps 775 mmHg 86%
    09:00 +9°C° 0 mm 1 mps 775 mmHg 78%
    10:00 +11°C° 0 mm 1 mps 776 mmHg 70%
    11:00 +12°C° 0 mm 1 mps 775 mmHg 64%
    12:00 +13°C° 0 mm 1 mps 774 mmHg 58%
    13:00 +15°C° 0 mm 1 mps 774 mmHg 51%
    14:00 +14°C° 0 mm 1 mps 774 mmHg 54%
    15:00 +13°C° 0 mm 0 mps 774 mmHg 57%
    16:00 +12°C° 0 mm 0 mps 773 mmHg 61%
    17:00 +9°C° 0 mm 0 mps 774 mmHg 71%
    18:00 +6°C° 0 mm 0 mps 774 mmHg 82%
    19:00 +3°C° 0 mm 0 mps 774 mmHg 93%
    20:00 +3°C° 0 mm 0 mps 774 mmHg 93%
    21:00 +3°C° 0 mm 0 mps 774 mmHg 93%
    22:00 +2°C° 0 mm 0 mps 775 mmHg 93%
    23:00 +2°C° 0 mm 0 mps 774 mmHg 93%

    3 June, Saturday

    Time Temperature Precipitation Wind Pressure Humidity
    00:00 +2°C° 0 mm 0 mps 774 mmHg 93%
    01:00 +2°C° 0 mm 0 mps 774 mmHg 93%
    02:00 +3°C° 0 mm 1 mps 774 mmHg 93%
    03:00 +3°C° 0 mm 1 mps 774 mmHg 93%
    04:00 +3°C° 0 mm 1 mps 774 mmHg 93%
    05:00 +3°C° 0 mm 1 mps 774 mmHg 94%
    06:00 +3°C° 0 mm 1 mps 774 mmHg 94%
    07:00 +3°C° 0 mm 1 mps 774 mmHg 94%
    08:00 +5°C° 0 mm 1 mps 774 mmHg 85%
    09:00 +8°C° 0 mm 1 mps 774 mmHg 76%
    10:00 +10°C° 0 mm 0 mps 774 mmHg 68%
    11:00 +11°C° 0 mm 0 mps 773 mmHg 62%
    12:00 +13°C° 0 mm 0 mps 773 mmHg 56%
    13:00 +14°C° 0 mm 0 mps 772 mmHg 50%
    14:00 +14°C° 0 mm 0 mps 772 mmHg 54%
    15:00 +13°C° 0 mm 0 mps 772 mmHg 58%
    16:00 +12°C° 0 mm 0 mps 771 mmHg 63%
    17:00 +10°C° 0 mm 1 mps 771 mmHg 73%
    18:00 +7°C° 0 mm 1 mps 772 mmHg 84%
    19:00 +5°C° 0 mm 1 mps 772 mmHg 95%
    20:00 +4°C° 0 mm 1 mps 772 mmHg 95%
    21:00 +4°C° 0 mm 1 mps 772 mmHg 95%
    22:00 +4°C° 0 mm 1 mps 772 mmHg 95%
    23:00 +4°C° 0 mm 1 mps 772 mmHg 95%
    Show more